Activity Log for May, 06 2019

Back to Activity Log Search


Incident Time Nature Address
19F051142 00:01:26 43 DISTURBANCE 79XX DECATUR RD
19F051143 00:06:48 43 DISTURBANCE FOX AVE & HUESTIS AVE
19F051144 00:07:25 44 NUISANCE 56XX LE STEELE BLVD
19F051146 00:13:02 48 SUSPICIOUS N CLINTON ST & E FOURTH ST
19F051147 00:16:41 30 TRAFFIC STOP BROADWAY & HOME AVE
19F051148 00:18:50 50IP BURG I/P 39XX SENATE AVE
19F051149 00:20:40 113 SHOTS FIRED 28XX OJIBWAY TRL
19F051150 00:21:51 44LM 9XX HOME AVE
19F051153 00:25:17 102,TX THREATS 20XX SKYHAWK DR
19F051152 00:26:14 46 DOMESTIC XX COUNTRY FOREST DR
19F051151 00:29:19 65A SUICIDE ATT 63XX E STATE BLVD
19F051154 00:34:11 ATL 79XX SERENITY DR
19F051155 00:56:14 44LP 18XX EMERSON AVE
19F051156 01:00:37 28 DUI MAPLECREST RD & ST JOE CENTER RD
19F051157 01:03:53 41 MAN DOWN 14XX BROADWAY
19F051158 01:06:24 40A AUDIBLE 18XX BLUFFTON RD
19F051159 01:07:45 96JO 9XX RIDGEWOOD DR
19F051160 01:13:17 46 DOMESTIC 24XX W STATE BLVD
19F051161 01:24:01 46,96 37XX ENGLE RD
19F051162 01:46:21 43 DISTURBANCE 15XX CAPITOL AVE
19F051163 01:51:51 43,62 55XX N CLINTON ST
19F051164 01:59:31 15 ASSIST LIMA RD & W COLISEUM BLVD
19F051165 02:00:48 40A AUDIBLE 35XX S ANTHONY BLVD
19F051166 02:07:04 43 DISTURBANCE 7XX VILLA PARK CT
19F051167 02:15:09 51 THEFT 17XX APPLE GLEN BLVD
19F051168 02:51:32 30 TRAFFIC STOP N COLISEUM BLVD & E STATE BLVD
19F051169 03:03:45 40A AUDIBLE 62XX BLUFFTON RD
19F051171 03:08:03 113 SHOTS FIRED 10XX KINSMOOR AVE
19F051170 03:09:06 48,36 75XX COLD SPRINGS BLVD
19F051172 03:12:06 20 PROBLEM UNK W JEFFERSON BLVD & W WASHINGTON BL
19F051174 03:18:43 911 HANG UP 12XX E DUPONT RD
19F051173 03:19:19 46 DOMESTIC 20XX KLUG DR
19F051176 03:20:38 66 MENTALLY ILL 79XX SERENITY DR
19F051175 03:21:33 44LM 64XX BITTERSWEET DR
19F051177 03:22:30 14 WARRANT 12XX W PACKARD AVE
19F051178 03:29:01 48,35 9XX NUTTMAN AVE
19F051179 04:04:44 911 HANG UP 1XX E DEWALD ST
19F051180 04:10:36 48 SUSPICIOUS FOX AVE & W CREIGHTON AVE
19F051181 04:55:56 48 SUSPICIOUS 29XX GOSHEN RD
19F051182 05:04:52 48 SUSPICIOUS 5XX E JEFFERSON BLVD
19F051183 05:05:22 34 TRAFF HAZARD ELSDALE DR & REED RD
19F051184 05:10:31 63 CONTACT 103XX ARBOR TRL
19F051185 05:17:22 43 DISTURBANCE 8XX RIDGEWOOD DR
19F051186 05:23:52 43 DISTURBANCE 21XX EDEN ST
19F051187 05:42:42 96IP 8XX RIDGEWOOD DR
19F051188 05:46:13 40A AUDIBLE 9XX S CALHOUN ST
19F051189 05:54:08 40A AUDIBLE 28XX E DUPONT RD
19F051190 05:56:39 33,34 ARDMORE AVE & ENGLE RD
19F051191 05:59:25 30 TRAFFIC STOP S CLINTON ST & MURRAY ST
19F051192 06:01:28 33,34 ARDMORE AVE & ENGLE RD
19F051193 06:13:17 24 MISSING PERS 66XX GOODRICH RD
19F051194 06:25:54 63 CONTACT 20XX KLUG DR
19F051195 06:32:46 41 MAN DOWN 69XX GOODRICH RD
19F051196 06:48:49 30 TRAFFIC STOP LIMA RD & E FERNHILL AVE
19F051201 07:14:34 18 WORK TRAFFIC E STATE BLVD & ALABAMA AVE
19F051200 07:15:32 18 WORK TRAFFIC S ANTHONY BLVD & OXFORD ST
19F051205 07:16:22 18 WORK TRAFFIC E STATE BLVD & LAVERNE AVE
19F051197 07:19:49 25HS HIT SKIP 73XX E STATE BLVD
19F051198 07:21:43 34 TRAFF HAZARD SMITH RD & ENGLE RD
19F051199 07:24:46 63 CONTACT 302XX I 69 NB
19F051202 07:31:59 25 PD ACCIDENT TRIER RD & E COLISEUM BLVD
19F051204 07:41:08 43 DISTURBANCE 38XX S CALHOUN ST
19F051208 07:50:37 EMS 29XX WANE LN
19F051207 07:54:57 25HS HIT SKIP 312XX I 69 NB
19F051209 08:01:47 51 THEFT 21XX GOSHEN RD
19F051210 08:12:31 63 CONTACT W JEFFERSON BLVD & COVENTRY LN
19F051211 08:12:39 25 PD ACCIDENT 308XX I 69 NB
19F051212 08:19:14 EMS 91XX LA BELLE PL
19F051213 08:19:44 101 OPEN DOOR 7XX N COLISEUM BLVD
19F051217 08:22:21 39 STOLEN VEHIC 7XX N COLISEUM BLVD
19F051216 08:22:42 25 PD ACCIDENT E COLISEUM BLVD & CRESCENT AVE
19F051215 08:23:13 30 TRAFFIC STOP S LAFAYETTE ST & E BUTLER ST
19F051229 08:25:35 50 BURGLARY 49XX ILLINOIS RD
19F051218 08:30:26 15 ASSIST W US 30 & KROEMER RD
19F051219 08:31:13 25 PD ACCIDENT 71XX BLK W JEFFERSON BLVD
19F051220 08:32:38 46 DOMESTIC 7XX MILTON ST
19F051221 08:38:11 911 HANG UP 10XX N COLISEUM BLVD
19F051222 08:43:41 25 PD ACCIDENT E COLISEUM BLVD & CRESCENT AVE
19F051223 08:46:37 129 22XX REED ST
19F051224 08:46:47 129 22XX REED ST
19F051225 08:47:31 48 SUSPICIOUS 17XX MERIDIAN ST
19F051226 08:48:54 1 MEET 11XX BROADWAY
19F051227 08:50:50 1 MEET S CALHOUN ST & E SUPERIOR ST
19F051228 08:53:30 40A AUDIBLE 34XX N CLINTON ST
19F051231 08:55:02 63 CONTACT COLDWATER RD & E WASHINGTON CENTER
19F051230 08:59:31 108 FOLLOWUP 24XX WEISSER PARK AVE
19F051232 09:03:13 22RC RECOVERY 46XX BOWSER AVE
19F051233 09:09:02 46 DOMESTIC 22XX HOBSON RD
19F051234 09:10:45 25HS HIT SKIP HUESTIS AVE & BROADWAY
19F051235 09:18:19 51 THEFT 19XX N COLISEUM BLVD
19F051236 09:19:37 22I JUV INVEST 8XX COTTAGE AVE
19F051240 09:23:07 39 STOLEN VEHIC 91XX LIMA RD
19F051237 09:34:06 97A LOST ITEMS 31XX EUCLID AVE
19F051239 09:34:41 63 CONTACT 51XX N CLINTON ST
19F051246 09:34:49 42 INTOX PERSON W DARROW AVE & HOAGLAND AVE
19F051238 09:35:38 51 THEFT 48XX S CALHOUN ST
19F051241 09:50:33 EMS 32XX BOWSER AVE
19F051243 09:52:22 25 PD ACCIDENT E STATE BLVD & N ANTHONY BLVD
19F051242 09:53:04 46 DOMESTIC 45XX S COLONIAL AVE
19F051244 09:55:47 25 PD ACCIDENT S CLINTON ST & E JEFFERSON BLVD
19F051250 10:01:24 102 THREATS 18XX WAYNE TRACE
19F051245 10:03:46 25 PD ACCIDENT N CLINTON ST & ST JOE CENTER RD
19F051248 10:06:47 50 BURGLARY 49XX ILLINOIS RD
19F051247 10:09:44 48 SUSPICIOUS EWING ST & W SUPERIOR ST
19F051249 10:17:22 51,ATTEMPTED 38XX COLDWATER RD
19F051251 10:24:33 17 MOTOR CHECK 28XX WHITE OAK AVE
19F051252 10:34:39 48 SUSPICIOUS 76XX S ANTHONY BLVD
19F051254 10:36:42 46 DOMESTIC 10XX LAKE AVE
19F051253 10:38:12 39 STOLEN VEHIC 49XX ILLINOIS RD
19F051255 10:40:13 50 BURGLARY 49XX ILLINOIS RD
19F051256 10:47:59 43 DISTURBANCE 13XX HOME AVE
19F051257 10:49:44 34 TRAFF HAZARD S CLINTON ST & E BUTLER ST
19F051261 10:49:44 47 REMOVE ITEMS 2XX CUMBERLAND AVE
19F051267 10:52:47 39R STOLEN RECO 24XX CASS ST
19F051265 10:53:35 16,97 11XX S MONROE ST
19F051258 10:54:42 51 THEFT 15XX W MAIN ST
19F051259 10:55:02 51 THEFT 6XX W STATE BLVD
19F051260 10:55:26 63 CONTACT 32XX VICTOR LN
19F051262 11:05:51 46 DOMESTIC 2XX E COX DR
19F051264 11:10:08 66 MENTALLY ILL 48XX S CALHOUN ST
19F051279 11:10:37 46 DOMESTIC 29XX KNODE CT
19F051266 11:15:55 22I JUV INVEST 4XX E STATE BLVD
19F051268 11:17:12 43 DISTURBANCE 22XX HOBSON RD
19F051269 11:21:16 40A AUDIBLE 20XX BROWN ST
19F051270 11:24:48 46 DOMESTIC 3XX W CREIGHTON AVE
19F051272 11:27:02 102,TX THREATS N CLINTON ST & PARNELL AVE
19F051271 11:27:05 25 PD ACCIDENT N CLINTON ST & WAKEFIELD AVE
19F051297 11:33:54 99 NARCOTICS GOSHEN RD & W WASHINGTON CENTER RD
19F051273 11:35:17 101 OPEN DOOR 2XX E SUTTENFIELD AVE
19F051274 11:36:51 25 PD ACCIDENT 88XX BAER RD
19F051276 11:43:57 51 THEFT 62XX BLUFFTON RD
19F051275 11:45:06 51 THEFT 59XX BUNT DR
19F051277 11:48:05 64 NOT SEEN 56XX MCCLELLAN ST
19F051285 11:54:16 17 MOTOR CHECK 54XX DECATUR RD
19F051278 11:56:29 129 4XX ESTERO RD
19F051280 12:02:15 65T SUICIDE THR 36XX S CALHOUN ST
19F051282 12:05:28 51JO 19XX SPY RUN AVE
19F051281 12:06:56 48 SUSPICIOUS 2XX E MAIN ST
19F051283 12:07:18 65T SUICIDE THR 55XX OLD DOVER BLVD
19F051284 12:08:24 34 TRAFF HAZARD E STATE BLVD & BEACON ST
19F051286 12:11:26 46,96 38XX MCKINNIE AVE
19F051288 12:21:18 39R STOLEN RECO 60XX HUGUENARD RD
19F051287 12:24:28 46,62 10XX FAYETTE DR
19F051289 12:27:17 1 MEET 3XX W SUPERIOR ST
19F051290 12:28:19 23 VANDALISM 24XX CLARA AVE
19F051298 12:30:56 16,97 54XX WINTER ST
19F051293 12:31:35 43 DISTURBANCE S ANTHONY BLVD & E WAYNE ST
19F051291 12:31:50 30 TRAFFIC STOP E SUPERIOR ST & S LAFAYETTE ST
19F051292 12:32:33 129 24XX OTSEGO DR
19F051294 12:36:32 51 THEFT 26XX SHADY OAK DR
19F051295 12:36:38 38 LOST/STOLEN 27XX FOXCHASE RUN
19F051296 12:38:02 51 THEFT 71XX SILVERTHORN RUN
19F051300 12:50:52 51 THEFT 62XX W JEFFERSON BLVD
19F051301 12:50:52 1 MEET 21XX ANDREW ST
19F051302 12:51:54 30 TRAFFIC STOP E MAIN ST & S LAFAYETTE ST
19F051303 12:53:10 43 DISTURBANCE 12XX HUESTIS AVE
19F051305 12:54:04 65T SUICIDE THR 17XX BAYVIEW DR
19F051304 12:55:09 33 DISABLED VEH 72XX W JEFFERSON BLVD
19F051314 12:55:17 16,97 7XX E STATE BLVD
19F051306 12:57:02 40A AUDIBLE 10XX VAN BUREN ST
19F051307 12:58:25 33,34 W WASHINGTON CENTER RD & HUGUENARD
19F051309 12:59:39 96JO 49XX COLDWATER RD
19F051308 13:00:43 46,96 5XX CHARLOTTE AVE
19F051316 13:01:36 27 RECKLESS DRI RUMSEY AVE & SINCLAIR ST
19F051310 13:05:04 18 WORK TRAFFIC COVINGTON RD & GETZ RD
19F051311 13:07:29 16,97 SHERMAN BLVD & PAPE AVE
19F051312 13:07:51 EMS 34XX SHERMAN BLVD
19F051313 13:11:36 34 TRAFF HAZARD HAZELWOOD AVE & CRESCENT AVE
19F051317 13:11:47 37 PARKING VIOL 21XX BAY SIDE CT
19F051315 13:13:21 43 DISTURBANCE 47XX WINTER ST
19F051318 13:14:37 48,36 SPRING ST & OAKLAND ST
19F051319 13:15:48 48 SUSPICIOUS 2XX S CLINTON ST
19F051320 13:22:09 96IP 61XX STELLHORN RD
19F051321 13:26:34 48 SUSPICIOUS 2XX E MAIN ST
19F051322 13:27:09 48 SUSPICIOUS 22XX W COLISEUM BLVD
19F051323 13:29:38 22I JUV INVEST 18XX BEACON ST
19F051326 13:30:27 48,35 20XX WENDMERE LN
19F051329 13:34:07 47 REMOVE ITEMS 94XX STAGECOACH DR
19F051324 13:34:24 25HS HIT SKIP 60XX ST JOE CENTER RD
19F051325 13:36:29 EMS 33XX TAYLOR ST
19F051328 13:40:41 63 CONTACT 79XX W JEFFERSON BLVD
19F051327 13:40:48 16 PICK UP ITEM XX E MAIN ST
19F051330 13:51:40 129 63XX AMARILLO DR
19F051338 13:57:02 47 REMOVE ITEMS 4XX E SUTTENFIELD AVE
19F051331 13:57:52 30 TRAFFIC STOP LIMA RD & W COLISEUM BLVD
19F051332 13:59:17 63 CONTACT W DEWALD ST & S HARRISON ST
19F051333 14:00:35 48,36 WERLING DR & CAPITOL AVE
19F051334 14:01:31 51 THEFT 32XX N ANTHONY BLVD
19F051335 14:06:47 43 DISTURBANCE 15XX CAPITOL AVE
19F051359 14:07:21 51 THEFT 46XX COLLBRAN CT
19F051336 14:08:42 43,62 14XX REED RD
19F051341 14:11:29 51 THEFT 38XX WAYNE TRACE
19F051342 14:13:01 63 CONTACT 7XX E LEWIS ST
19F051351 14:13:31 63 CONTACT 98XX HIDDEN VILLAGE PL
19F051352 14:15:02 18 WORK TRAFFIC S ANTHONY BLVD & OXFORD ST
19F051339 14:16:02 LP LOST PROPERT 13XX EWING ST
19F051340 14:16:16 43 DISTURBANCE 36XX S HANNA ST
19F051356 14:17:02 18 WORK TRAFFIC W PONTIAC ST & FAIRFIELD AVE
19F051355 14:19:45 18 WORK TRAFFIC W PONTIAC ST & HOAGLAND AVE
19F051343 14:22:34 63Z ZACH CHECK 41XX WINTER ST
19F051344 14:22:59 48 SUSPICIOUS 16XX GOSHEN AVE
19F051345 14:23:11 1 MEET W JEFFERSON BLVD & EWING ST
19F051353 14:25:21 63 CONTACT 76XX COLD SPRINGS BLVD
19F051348 14:26:07 130 HOME DETEN 21XX RED OAK RUN
19F051347 14:28:44 43 DISTURBANCE 5XX W JEFFERSON BLVD
19F051346 14:28:47 26PP PINNED W JEFFERSON BLVD & I 69 302 SB ON
19F051350 14:29:42 911 HANG UP 23XX BROADWAY
19F051349 14:30:31 99 NARCOTICS XX E MAIN ST
19F051354 14:39:15 48 SUSPICIOUS 27XX E STATE BLVD
19F051357 14:40:20 48 SUSPICIOUS 2XX E MAIN ST
19F051358 14:41:10 51 THEFT 44XX ILLINOIS RD
19F051362 14:41:48 45 NEIGHBORHOOD 70XX FOREST GLEN CT
19F051360 14:43:16 34 TRAFF HAZARD 29XX OXFORD ST
19F051361 14:45:47 46 DOMESTIC 70XX RED HAW DR
19F051371 14:47:36 11C CAGE CAR 53XX COLDWATER RD
19F051364 14:52:16 103 UNWANTED 12XX E CREIGHTON AVE
19F051363 14:52:53 25 PD ACCIDENT N CLINTON ST & CALIFORNIA RD E
19F051365 14:55:19 63Z ZACH CHECK 3XX W SHERWOOD TER
19F051366 14:57:50 103 UNWANTED 6XX W JEFFERSON BLVD
19F051367 15:01:17 22I JUV INVEST BAXTER ST & WEISSER PARK AVE
19F051368 15:04:04 30 TRAFFIC STOP BROOKLYN AVE & TAYLOR ST
19F051369 15:05:07 48 SUSPICIOUS 31XX SPRING ST
19F051370 15:07:30 41 MAN DOWN 19XX BROADWAY
19F051372 15:11:23 48 SUSPICIOUS 20XX TAYLOR ST
19F051373 15:15:47 46 DOMESTIC 8XX AURORA KNOLL LN
19F051374 15:17:40 40A AUDIBLE 13XX ILLSLEY DR
19F051375 15:19:30 51 THEFT 41XX W JEFFERSON BLVD
19F051376 15:22:07 129 3XX LEXINGTON CT
19F051377 15:22:33 27 RECKLESS DRI E WASHINGTON CENTER RD & N CLINTON
19F051379 15:24:42 43,62 4XX W COX DR
19F051378 15:25:28 48 SUSPICIOUS BROADWAY & W WAYNE ST
19F051381 15:28:13 25HS HIT SKIP 21XX S HANNA ST
19F051394 15:29:06 25 PD ACCIDENT 55XX US 33
19F051380 15:29:12 25 PD ACCIDENT STELLHORN RD & OAKHURST DR
19F051382 15:34:06 96 BATTERY 2XX W JEFFERSON BLVD
19F051384 15:34:08 24 MISSING PERS 103XX ARBOR TRL
19F051383 15:37:41 102 THREATS 81XX ROXBORO CT
19F051385 15:41:58 43 DISTURBANCE S HARRISON ST & W JEFFERSON BLVD
19F051397 15:44:05 47 REMOVE ITEMS 27XX W WASHINGTON CENTER RD
19F051386 15:52:08 17 MOTOR CHECK 35XX KIRKLAND AVE
19F051389 15:52:13 33,34 E PAULDING RD & S LAFAYETTE ST
19F051387 15:53:05 30 TRAFFIC STOP S ANTHONY BLVD & COLERICK ST
19F051388 15:53:59 43 DISTURBANCE 7XX LEESBURG RD
19F051390 15:55:39 911 HANG UP 19XX CHARTWELL DR
19F051392 15:56:17 25HS HIT SKIP 37XX E WASHINGTON BLVD
19F051393 15:59:56 24 MISSING PERS 43XX REED ST
19F051391 16:01:31 51 THEFT 42XX COLDWATER RD
19F051398 16:06:42 34 TRAFF HAZARD 305XX I 69 SB
19F051396 16:10:03 16,97 80XX BUTTERMORE RUN
19F051404 16:11:10 11C CAGE CAR 53XX COLDWATER RD
19F051395 16:11:41 51 THEFT 12XX E DUPONT RD
19F051401 16:13:45 102 THREATS 16XX TULIP TREE RD
19F051403 16:17:17 102,TX THREATS XX E MAIN ST
19F051399 16:20:21 30 TRAFFIC STOP VANCE AVE & FARNSWORTH DR
19F051400 16:20:53 48,35 25XX E PONTIAC ST
19F051402 16:25:11 46 DOMESTIC 46XX PLAZA DR
19F051407 16:30:18 40A AUDIBLE 2XX MURRAY ST
19F051408 16:30:23 40A AUDIBLE 3XX N SEMINOLE CIR
19F051405 16:32:55 23 VANDALISM 75XX MONACO PL
19F051406 16:33:09 46,96 11XX W WILDWOOD AVE
19F051410 16:33:24 34 TRAFF HAZARD LAKE AVE & ST JOSEPH BLVD
19F051411 16:34:30 32A DEATH NOTIF 82XX STAND RIDGE RUN
19F051409 16:34:40 30 TRAFFIC STOP E ARLINGTON PARK BLVD & SHENANDOAH
19F051413 16:36:13 27 RECKLESS DRI RUNNION AVE & W MAIN ST
19F051412 16:38:58 48 SUSPICIOUS LAKE AVE & INWOOD DR
19F051420 16:44:37 25 PD ACCIDENT W SUPERIOR ST & WELLS ST
19F051434 16:44:37 22RN RUNAWAY 10XX MCKINNIE AVE
19F051414 16:44:39 15 ASSIST 59XX STELLHORN RD
19F051415 16:47:03 43 DISTURBANCE E SUPERIOR ST & S LAFAYETTE ST
19F051417 16:48:46 65T SUICIDE THR 63XX LIMA RD
19F051416 16:48:57 33J LOCKED OUT 39XX HESSEN CASSEL RD
19F051418 16:50:55 45 NEIGHBORHOOD 3XX W DARROW AVE
19F051448 16:52:12 35 PARKED VEHIC 45XX OLIVER ST
19F051419 16:52:54 911 HANG UP HARRIS RD & N SCHOMBURG DR
19F051422 16:56:16 25 PD ACCIDENT S CALHOUN ST & W WASHINGTON BLVD
19F051423 16:57:10 46,96 29XX JOHN ST
19F051421 16:58:29 43 DISTURBANCE 2XX E PETTIT AVE
19F051424 17:01:49 51 THEFT 47XX S CALHOUN ST
19F051426 17:02:42 40H HOLDUP ALRM 21XX GOSHEN RD
19F051427 17:05:04 62 PARTY ARMED 35XX WAYNE TRACE
19F051429 17:06:19 113 SHOTS FIRED E SHERWOOD TER & WARSAW ST
19F051428 17:08:38 51,35 W JEFFERSON BLVD & ENGLE RD
19F051432 17:10:29 62 PARTY ARMED 1XX E COLISEUM BLVD
19F051433 17:11:31 46 DOMESTIC 26XX STRATHMORE ST
19F051430 17:12:05 30 TRAFFIC STOP S CALHOUN ST & CONGRESS AVE
19F051431 17:13:02 48 SUSPICIOUS 2XX E MAIN ST
19F051440 17:14:31 23 VANDALISM 9XX HOME AVE
19F051457 17:15:05 14 WARRANT 5XX BLUEBERRY LN
19F051435 17:17:09 26 PI ACCIDENT 5XX W BRACKENRIDGE ST
19F051436 17:17:47 25 PD ACCIDENT WATKINS ST & W MAIN ST
19F051437 17:18:17 113 SHOTS FIRED REED ST & E RUDISILL BLVD
19F051439 17:20:44 1 MEET 1XX CUMBERLAND AVE
19F051438 17:21:02 96IP 60XX COVINGTON RD
19F051444 17:26:03 1 MEET 77XX CROSSHILL CT
19F051441 17:27:04 25 PD ACCIDENT ILLINOIS RD & GETZ RD
19F051442 17:31:57 55 FIGHT 37XX E WASHINGTON BLVD
19F051443 17:33:15 25 PD ACCIDENT 42XX PARNELL AVE
19F051445 17:35:04 96IP 44XX WILMETTE ST
19F051447 17:35:18 65A SUICIDE ATT 4XX E MAIN ST
19F051450 17:38:38 16,97 4XX W COLISEUM BLVD
19F051446 17:39:04 51 THEFT 61XX SOUTHAMPTON CT
19F051452 17:39:08 47 REMOVE ITEMS 33XX OLIVER ST
19F051451 17:44:45 40A AUDIBLE 50XX S CALHOUN ST
19F051449 17:45:00 46 DOMESTIC 27XX FAIROAK DR
19F051453 17:49:33 43 DISTURBANCE 22XX SHADY BROOK DR
19F051454 17:49:47 25 PD ACCIDENT I 69 AND JEFFERSON BLVD
19F051466 17:51:36 51,35 6XX LINDENWOOD AVE
19F051455 17:51:49 25 PD ACCIDENT MAPLECREST RD & ST JOE CENTER RD
19F051456 17:55:53 55 FIGHT 9XX E PETTIT AVE
19F051458 17:58:20 51JO 41XX W JEFFERSON BLVD
19F051459 18:00:22 43 DISTURBANCE W JEFFERSON BLVD & GARDEN ST
19F051461 18:04:09 43 DISTURBANCE 18XX FOX POINT TRL
19F051460 18:04:44 63 CONTACT W BAKER ST & FAIRFIELD AVE
19F051463 18:06:25 43,62 E PETTIT AVE & GAYWOOD DR
19F051462 18:06:27 30 TRAFFIC STOP W JEFFERSON BLVD & FAIRFIELD AVE
19F051464 18:08:34 46 DOMESTIC 15XX SPY RUN AVE
19F051465 18:09:47 103 UNWANTED 45XX FAIRFIELD AVE
19F051467 18:11:41 63 CONTACT PUTNAM ST & CORTLAND AVE
19F051470 18:12:00 51JO 75XX SOUTHTOWN XING
19F051474 18:13:51 45 NEIGHBORHOOD 40XX S MONROE ST
19F051468 18:14:18 46 DOMESTIC 35XX MCCORMICK AVE
19F051469 18:16:09 46 DOMESTIC 70XX AUTUMN VIEW DR
19F051482 18:16:13 11C CAGE CAR 53XX COLDWATER RD
19F051472 18:16:58 111D DOG 19XX N CLINTON ST
19F051471 18:19:57 37 PARKING VIOL 65XX TRIER RD
19F051473 18:20:38 22RN RUNAWAY 42XX WESTLANE RD
19F051475 18:26:00 48,36 72XX ELZEY ST
19F051476 18:27:42 63 CONTACT W FOURTH ST & WELLS ST
19F051480 18:28:51 47 REMOVE ITEMS 82XX QUINCY CT
19F051479 18:32:39 48,35 32XX PORTAGE BLVD
19F051477 18:32:41 25HS HIT SKIP LIMA RD & W COOK RD
19F051478 18:33:20 63 CONTACT W FOURTH ST & CASS ST
19F051486 18:34:58 108 FOLLOWUP 64XX ALVAREZ DR
19F051481 18:38:29 48 SUSPICIOUS 25XX S HARRISON ST
19F051484 18:39:50 23 VANDALISM N COLISEUM BLVD & LAKE AVE
19F051483 18:41:58 44LM 23XX BOWSER AVE
19F051485 18:44:55 55 FIGHT E PETTIT AVE & SOUTHPARK DR
19F051488 18:45:17 25HS HIT SKIP 10XX W OAKDALE DR
19F051487 18:46:49 51 THEFT 61XX STELLHORN RD
19F051508 18:54:11 23,35 VAND VEH 48XX EXECUTIVE BLVD
19F051489 18:55:10 103 UNWANTED 41XX N CLINTON ST
19F051490 18:59:34 46,96 34XX AMULET DR
19F051501 19:00:01 63 CONTACT 1XX MECHANIC ST
19F051491 19:04:49 911 HANG UP 32XX N WASHINGTON RD
19F051492 19:10:03 17 MOTOR CHECK 61XX AURORA PL
19F051493 19:13:56 62 PARTY ARMED 42XX COLDWATER RD
19F051494 19:14:47 44LM 36XX REED ST
19F051495 19:19:13 25 PD ACCIDENT E COOK RD & COLDWATER RD
19F051496 19:21:49 48 SUSPICIOUS 16XX FAIRFIELD AVE
19F051497 19:29:39 43 DISTURBANCE 2XX E PETTIT AVE
19F051498 19:31:59 51 THEFT 27XX MILLBROOK DR
19F051500 19:33:55 43 DISTURBANCE E PETTIT AVE & S HANNA ST
19F051503 19:39:33 48 SUSPICIOUS 41XX ILLINOIS RD
19F051502 19:39:58 129 29XX ELMDALE DR
19F051504 19:41:22 EMS 29XX KENWOOD AVE
19F051505 19:43:08 22I JUV INVEST E FAIRFAX AVE & S ANTHONY BLVD
19F051516 19:44:26 51 THEFT 27XX W WASHINGTON CENTER RD
19F051506 19:44:43 46 DOMESTIC 14XX BILLY DR
19F051509 19:50:27 33J LOCKED OUT 103XX MAYSVILLE RD
19F051507 19:52:08 40 ALARM 65XX MUTUAL DR
19F051510 20:01:42 1 MEET E WAYNE TRACE & WABASH AVE
19F051511 20:05:37 25HS HIT SKIP 2XX E PETTIT AVE
19F051513 20:08:08 911 HANG UP 48XX SMITH ST
19F051514 20:08:38 46 DOMESTIC 21XX HOBSON RD
19F051512 20:09:02 51 THEFT 16XX OAKLAND ST
19F051515 20:10:58 30 TRAFFIC STOP FREEMAN ST & NUTTMAN AVE
19F051517 20:17:56 48 SUSPICIOUS 58XX KELSO LN
19F051518 20:25:36 30 TRAFFIC STOP EDGEWOOD AVE & EASTBROOK DR
19F051519 20:29:45 55 FIGHT 37XX E WASHINGTON BLVD
19F051540 20:29:50 46 DOMESTIC 51XX MOUNT VERNON PARK DR
19F051520 20:31:11 25 PD ACCIDENT S LAFAYETTE ST & E RUDISILL BLVD
19F051521 20:32:44 102,TX THREATS 40XX OLIVER ST
19F051522 20:36:43 44LP 24XX VANCE AVE
19F051523 20:41:52 30 TRAFFIC STOP TAYLOR ST & BROOKLYN AVE
19F051524 20:42:18 46 DOMESTIC 18XX ALLIGER ST
19F051525 20:42:54 43 DISTURBANCE 26XX E STATE BLVD
19F051535 20:46:59 15 ASSIST E TILLMAN RD & S LAFAYETTE ST
19F051527 20:49:32 103 UNWANTED 35XX WARSAW ST
19F051538 20:51:13 102,TX THREATS 44XX WARSAW ST
19F051529 20:52:29 48 SUSPICIOUS 75XX SOUTHTOWN XING
19F051531 20:53:04 ATL 3XX W DARROW AVE
19F051526 20:53:05 48,36 22XX MAPLECREST RD
19F051541 20:54:15 44 NUISANCE 44XX S COLONIAL AVE
19F051528 20:55:48 16,97 27XX W COLISEUM BLVD
19F051530 20:57:06 108 FOLLOWUP XX E MAIN ST
19F051532 21:01:27 30 TRAFFIC STOP W COLISEUM BLVD & HARRIS RD
19F051533 21:02:06 44FW OAKHURST DR & LIONEL DR
19F051534 21:02:17 44 NUISANCE 34XX AUER DR
19F051552 21:02:44 48,36 49XX CAMDEN DR
19F051536 21:06:13 35 PARKED VEHIC 37XX SOUTHWAYNE AVE
19F051537 21:07:19 113 SHOTS FIRED 48XX BUELL DR
19F051539 21:10:28 30 TRAFFIC STOP STELLHORN RD & MANISTEE DR
19F051543 21:13:12 99 NARCOTICS XX E MAIN ST
19F051544 21:13:27 35 PARKED VEHIC 11XX CHUTE ST
19F051547 21:13:39 51 THEFT 77XX SOUTHTOWN XING
19F051546 21:15:09 58 SHOOTING 7XX BROADWAY
19F051545 21:15:14 80 CIVIL INVEST 42XX COLDWATER RD
19F051549 21:16:14 911 HANG UP 45XX WINTER ST
19F051548 21:16:16 43 DISTURBANCE E STATE BLVD & FOREST PARK BLVD
19F051551 21:16:20 25HS HIT SKIP SPRING ST & WELLS ST
19F051550 21:16:36 51JO 70XX BLUFFTON RD
19F051553 21:19:04 43 DISTURBANCE 10XX N COLISEUM BLVD
19F051554 21:32:03 25 PD ACCIDENT MAUMEE AVE & LILLIE ST
19F051559 21:33:21 30 TRAFFIC STOP ARAPAHO PASSOVER & OLD LEO RD
19F051555 21:35:52 20 PROBLEM UNK 46XX E WASHINGTON BLVD
19F051564 21:41:05 45 NEIGHBORHOOD 48XX JASON DR
19F051556 21:41:47 43 DISTURBANCE 35XX NEW HAVEN AVE
19F051560 21:42:26 44LM LIBERTY MILLS RD & HOMESTEAD RD
19F051557 21:44:35 43 DISTURBANCE 47XX SPATZ AVE
19F051558 21:56:20 58 SHOOTING 57XX BOWSER AVE
19F051562 22:00:23 43 DISTURBANCE 12XX STOPHLET ST
19F051561 22:01:23 33,34 EVARD RD & MAPLECREST RD
19F051567 22:02:49 45 NEIGHBORHOOD 29XX STINSON DR
19F051563 22:03:39 30 TRAFFIC STOP S HARRISON ST & PEARL ST
19F051565 22:05:07 63 CONTACT 10XX CURDES AVE
19F051566 22:05:33 46 DOMESTIC 68XX SHADOWBROOK CV
19F051569 22:11:33 58 SHOOTING 7XX BROADWAY
19F051568 22:11:41 103 UNWANTED 20XX BROADWAY
19F051570 22:16:45 30 TRAFFIC STOP E PAULDING RD & S ANTHONY BLVD
19F051571 22:18:49 46,96 45XX BOWSER AVE
19F051572 22:20:58 33,34 LOWER HUNTINGTON RD & ARDMORE AVE
19F051573 22:21:49 40A AUDIBLE 12XX RUNNION AVE
19F051574 22:22:09 43 DISTURBANCE 29XX ABBOTT ST
19F051576 22:24:16 44LM 5XX E TABER ST
19F051575 22:27:10 43 DISTURBANCE 4XX W DEWALD ST
19F051577 22:30:29 30 TRAFFIC STOP 2XX N THOMAS RD
19F051578 22:39:19 30 TRAFFIC STOP HARRIS RD & SUNDOWN LN
19F051579 22:39:27 46 DOMESTIC 27XX FOX AVE
19F051580 22:41:55 30 TRAFFIC STOP VAN BUREN ST & W WAYNE ST
19F051581 22:44:14 46 DOMESTIC 79XX SERENITY DR
19F051585 22:47:26 63 CONTACT 42XX HIGHWOOD DR
19F051582 22:48:15 43 DISTURBANCE LAKE AVE & N COLISEUM BLVD
19F051583 22:48:38 51,35 68XX BLUFFTON RD
19F051599 22:54:52 44LM 43XX WINTER ST
19F051584 22:55:11 48,35 52XX DECATUR RD
19F051588 23:01:07 43 DISTURBANCE 14XX BLK FAYETTE DR
19F051586 23:02:00 46 DOMESTIC 2XX RILEY PL
19F051589 23:03:32 EMS 8XX COTTAGE AVE
19F051587 23:04:28 30 TRAFFIC STOP 2XX S CLINTON ST
19F051597 23:07:31 22I JUV INVEST 7XX BROADWAY
19F051591 23:10:08 113 SHOTS FIRED MCKINNIE AVE & S ANTHONY BLVD
19F051592 23:10:55 44 NUISANCE 3XX W DARROW AVE
19F051593 23:16:46 113 SHOTS FIRED 35XX RAYMOND AVE
19F051594 23:19:02 41,36 34XX ELWOOD DR
19F051595 23:19:05 51,35 30XX GOSHEN RD
19F051598 23:20:30 24 MISSING PERS 18XX ALABAMA AVE
19F051596 23:20:58 40A AUDIBLE 19XX W STATE BLVD
19F051600 23:23:54 ATL 34XX ENGLE RD
19F051601 23:31:39 48,36 61XX BUNT DR
19F051602 23:38:08 48 SUSPICIOUS 49XX BLUFFTON RD
19F051603 23:46:20 40 ALARM 25XX SPY RUN AVE
19F051606 23:48:37 30 TRAFFIC STOP W BELMONT ST & FAIRFIELD AVE
19F051607 23:52:14 48 SUSPICIOUS 31XX BROADWAY
19F051604 23:53:29 43 DISTURBANCE 27XX RAYMOND ST
19F051605 23:54:42 30 TRAFFIC STOP 23XX SHERMAN BLVD
19F051610 23:56:21 48 SUSPICIOUS 7XX PELHAM DR
19F051608 23:56:39 48,36 22XX ARDMORE AVE
19F051609 23:59:11 63 CONTACT 33XX THURBER AVE